SCP
0 0 0 1 1 1 1 0 0 0 1 1 2 2 2 2 1 0 0 0 0 0
0 0 0 0 0 0 0 0 0 0 0 0 1 1 2 2 2 1 1 1 1 1
0 0 0 0 0 0 0 0 0 0 0 0 0 0 1 1 1 1 1 1 1 1
0 0 0 0 0 0 0 0 0 0 0 0 0 0 1 1 1 0 1 1 1 0
0 0 0 0 0 0 0 0 0 0 0 0 0 0 0 0 0 0 0 1 1 1
0 0 0 0 0 0 0 0 0 0 0 0 0 0 0 0 0 0 0 0 0 0
-0 -0 -0 -0 -0 -0 0 0 0 0 0 0 0 0 0 0 0 0 0 0 0 0
0 -0 -0 -0 -0 0 0 0 0 0 0 0 0 0 0 0 0 0 0 0 0 0
-0 -0 -0 -0 -0 0 0 0 0 0 0 0 0 0 0 0 0 0 0 0 0 0
0 0 0 0 0 0 0 0 0 0 0 0 0 0 0 0 0 0 0 0 0 0
0 0 0 0 0 0 0 0 0 0 0 0 0 0 0 0 0 0 0 0 0 0
0 0 0 0 0 0 0 0 0 0 0 0 0 0 0 0 0 0 0 0 0 0
0 0 0 0 0 0 0 0 0 0 0 0 0 0 0 0 0 0 0 0 0 0
0 0 0 0 0 0 0 0 0 0 0 0 0 0 0 0 0 0 0 0 0 0
Wind_Speed_500mb
26 28 21 24 14 6 10 11 10 8 27 16 10 20 31 37 37 40 50 62 66 72
33 28 20 17 12 13 14 12 11 7 3 19 4 9 21 27 35 37 38 43 57 65
29 29 25 19 14 12 5 9 12 20 24 25 15 17 19 14 23 28 36 44 47 49
30 30 26 19 16 12 7 8 12 7 15 20 21 25 27 28 27 22 28 32 37 45
29 27 21 18 22 18 12 10 4 3 9 18 19 23 24 22 14 22 23 26 30 34
30 25 24 25 24 21 18 18 13 13 13 10 14 21 24 20 20 21 23 24 28 28
37 34 30 22 20 20 23 26 26 27 30 28 22 23 23 19 21 22 21 24 25 25
24 23 23 25 23 20 18 15 17 18 18 21 20 28 37 33 31 25 26 26 24 24
18 20 21 22 23 21 21 22 19 16 20 17 15 31 34 38 41 35 25 27 28 30
22 22 22 21 21 21 23 25 25 21 19 21 19 29 35 39 44 42 31 30 31 33
26 29 27 25 25 25 26 27 26 25 23 23 23 30 36 34 29 26 31 33 35 35
34 35 33 31 32 30 32 33 29 26 27 27 26 32 39 34 28 23 26 27 30 33
38 37 36 35 35 35 37 32 32 32 30 31 31 30 35 36 29 26 27 27 29 31
36 34 38 35 33 42 35 36 35 33 28 29 30 33 33 38 31 22 26 27 29 31
Wind_Direction_500mb
66 67 85 105 129 156 181 183 183 260 352 340 280 246 244 249 257 262 254 244 247 261
40 44 59 70 99 134 141 163 179 155 52 306 270 278 270 264 255 250 255 254 252 253
35 40 40 35 42 28 312 214 210 248 251 269 270 267 249 275 290 278 270 262 261 259
35 26 19 14 21 12 21 63 46 297 233 258 281 272 252 241 239 276 283 287 268 263
15 12 10 359 351 320 331 334 272 172 274 272 282 288 294 288 267 273 278 277 282 278
4 5 1 1 346 336 327 279 265 276 238 260 282 272 284 295 286 278 280 281 282 282
340 350 350 351 335 345 334 336 321 297 261 250 243 256 280 275 286 281 282 281 285 284
329 339 326 321 328 325 332 327 322 310 284 272 270 269 266 267 260 273 276 278 287 287
324 321 314 310 313 310 310 303 296 303 294 294 282 265 273 269 264 263 272 277 279 281
313 315 311 308 307 309 294 300 301 295 292 292 287 276 276 277 266 267 270 270 272 276
310 312 312 314 313 309 308 301 299 291 286 286 282 282 290 289 288 288 279 269 268 270
305 308 310 312 310 307 305 301 294 288 285 280 280 285 288 293 294 295 284 280 274 270
302 301 302 303 304 305 301 294 296 289 280 281 282 280 282 293 296 289 282 279 279 282
300 301 298 303 296 302 298 289 280 275 279 287 279 278 284 293 300 287 281 278 278 281
Wind_Speed_850mb
26 28 21 24 14 6 10 11 10 8 27 16 10 20 31 37 37 40 50 62 66 72
33 28 20 17 12 13 14 12 11 7 3 19 4 9 21 27 35 37 38 43 57 65
29 29 25 19 14 12 5 9 12 20 24 25 15 17 19 14 23 28 36 44 47 49
30 30 26 19 16 12 7 8 12 7 15 20 21 25 27 28 27 22 28 32 37 45
29 27 21 18 22 18 12 10 4 3 9 18 19 23 24 22 14 22 23 26 30 34
30 25 24 25 24 21 18 18 13 13 13 10 14 21 24 20 20 21 23 24 28 28
37 34 30 22 20 20 23 26 26 27 30 28 22 23 23 19 21 22 21 24 25 25
24 23 23 25 23 20 18 15 17 18 18 21 20 28 37 33 31 25 26 26 24 24
18 20 21 22 23 21 21 22 19 16 20 17 15 31 34 38 41 35 25 27 28 30
22 22 22 21 21 21 23 25 25 21 19 21 19 29 35 39 44 42 31 30 31 33
26 29 27 25 25 25 26 27 26 25 23 23 23 30 36 34 29 26 31 33 35 35
34 35 33 31 32 30 32 33 29 26 27 27 26 32 39 34 28 23 26 27 30 33
38 37 36 35 35 35 37 32 32 32 30 31 31 30 35 36 29 26 27 27 29 31
36 34 38 35 33 42 35 36 35 33 28 29 30 33 33 38 31 22 26 27 29 31
Wind_Direction_850mb
66 67 85 105 129 156 181 183 183 260 352 340 280 246 244 249 257 262 254 244 247 261
40 44 59 70 99 134 141 163 179 155 52 306 270 278 270 264 255 250 255 254 252 253
35 40 40 35 42 28 312 214 210 248 251 269 270 267 249 275 290 278 270 262 261 259
35 26 19 14 21 12 21 63 46 297 233 258 281 272 252 241 239 276 283 287 268 263
15 12 10 359 351 320 331 334 272 172 274 272 282 288 294 288 267 273 278 277 282 278
4 5 1 1 346 336 327 279 265 276 238 260 282 272 284 295 286 278 280 281 282 282
340 350 350 351 335 345 334 336 321 297 261 250 243 256 280 275 286 281 282 281 285 284
329 339 326 321 328 325 332 327 322 310 284 272 270 269 266 267 260 273 276 278 287 287
324 321 314 310 313 310 310 303 296 303 294 294 282 265 273 269 264 263 272 277 279 281
313 315 311 308 307 309 294 300 301 295 292 292 287 276 276 277 266 267 270 270 272 276
310 312 312 314 313 309 308 301 299 291 286 286 282 282 290 289 288 288 279 269 268 270
305 308 310 312 310 307 305 301 294 288 285 280 280 285 288 293 294 295 284 280 274 270
302 301 302 303 304 305 301 294 296 289 280 281 282 280 282 293 296 289 282 279 279 282
300 301 298 303 296 302 298 289 280 275 279 287 279 278 284 293 300 287 281 278 278 281